When you browse on this site, cookies collect data to enhance your experience and personalize the content and advertising you see.
Visit our Privacy Policy to learn more. By continuing to use the site, you agree to this use of cookies and data.
  • In Hungary
  • List of Countries
  • For 7 days
  • Water Temperature
  • Satellite Maps
  • Weather Map
  • News
  • Weather Widgets
  • user-avatar
    Login

    Hourly Weather Khyriv

    Today, 22 July, Monday

    Time Temperature Precipitation Wind Pressure Humidity
    00:00 +16°C° 0 mm 1 mps 734 mmHg 94%
    01:00 +16°C° 0 mm 1 mps 734 mmHg 94%
    02:00 +16°C° 0 mm 2 mps 734 mmHg 94%
    03:00 +15°C° 0 mm 2 mps 734 mmHg 94%
    04:00 +15°C° 0 mm 2 mps 734 mmHg 94%
    05:00 +15°C° 0 mm 2 mps 734 mmHg 94%
    06:00 +17°C° 0 mm 2 mps 734 mmHg 91%
    07:00 +18°C° 0 mm 2 mps 735 mmHg 89%
    08:00 +20°C° 0 mm 2 mps 735 mmHg 86%
    09:00 +21°C° 0 mm 3 mps 735 mmHg 79%
    10:00 +22°C° 0 mm 3 mps 735 mmHg 72%
    11:00 +23°C° 0 mm 4 mps 735 mmHg 65%
    12:00 +23°C° 0.1 mm 4 mps 735 mmHg 64%
    13:00 +25°C° 0.1 mm 4 mps 735 mmHg 63%
    14:00 +25°C° 0.1 mm 4 mps 735 mmHg 62%
    15:00 +25°C° 0 mm 4 mps 735 mmHg 62%
    16:00 +25°C° 0 mm 4 mps 735 mmHg 61%
    17:00 +25°C° 0 mm 3 mps 735 mmHg 60%
    18:00 +22°C° 0 mm 3 mps 735 mmHg 67%
    19:00 +21°C° 0 mm 2 mps 734 mmHg 75%
    20:00 +20°C° 0 mm 1 mps 734 mmHg 82%
    21:00 +19°C° 0.1 mm 1 mps 734 mmHg 84%
    22:00 +18°C° 0.1 mm 1 mps 734 mmHg 87%
    23:00 +18°C° 0.1 mm 1 mps 734 mmHg 89%

    Tomorrow, 23 July, Tuesday

    Time Temperature Precipitation Wind Pressure Humidity
    00:00 +16°C° 0.1 mm 1 mps 734 mmHg 90%
    01:00 +16°C° 0.1 mm 1 mps 734 mmHg 91%
    02:00 +16°C° 0.1 mm 1 mps 734 mmHg 92%
    03:00 +16°C° 0 mm 1 mps 734 mmHg 93%
    04:00 +16°C° 0 mm 1 mps 734 mmHg 93%
    05:00 +16°C° 0 mm 1 mps 734 mmHg 93%
    06:00 +16°C° 0 mm 1 mps 734 mmHg 89%
    07:00 +17°C° 0 mm 2 mps 734 mmHg 86%
    08:00 +18°C° 0 mm 2 mps 734 mmHg 82%
    09:00 +19°C° 0.1 mm 2 mps 734 mmHg 75%
    10:00 +20°C° 0.1 mm 2 mps 734 mmHg 68%
    11:00 +22°C° 0.1 mm 3 mps 735 mmHg 61%
    12:00 +22°C° 0.3 mm 3 mps 734 mmHg 63%
    13:00 +22°C° 0.3 mm 4 mps 734 mmHg 65%
    14:00 +22°C° 0.3 mm 4 mps 734 mmHg 68%
    15:00 +21°C° 0.3 mm 4 mps 734 mmHg 68%
    16:00 +21°C° 0.3 mm 4 mps 734 mmHg 69%
    17:00 +21°C° 0.3 mm 4 mps 734 mmHg 70%
    18:00 +20°C° 0.1 mm 4 mps 733 mmHg 76%
    19:00 +18°C° 0.1 mm 3 mps 733 mmHg 83%
    20:00 +17°C° 0.1 mm 3 mps 733 mmHg 89%
    21:00 +16°C° 0 mm 2 mps 733 mmHg 91%
    22:00 +15°C° 0 mm 2 mps 734 mmHg 94%
    23:00 +14°C° 0 mm 2 mps 734 mmHg 96%

    Day after tomorrow, 24 July, Wednesday

    Time Temperature Precipitation Wind Pressure Humidity
    00:00 +14°C° 0 mm 1 mps 734 mmHg 96%
    01:00 +14°C° 0 mm 1 mps 733 mmHg 96%
    02:00 +13°C° 0 mm 1 mps 733 mmHg 97%
    03:00 +13°C° 0 mm 1 mps 733 mmHg 97%
    04:00 +13°C° 0 mm 1 mps 733 mmHg 97%
    05:00 +13°C° 0 mm 1 mps 733 mmHg 97%
    06:00 +14°C° 0 mm 1 mps 733 mmHg 92%
    07:00 +16°C° 0 mm 1 mps 733 mmHg 87%
    08:00 +19°C° 0 mm 1 mps 733 mmHg 82%
    09:00 +20°C° 0 mm 1 mps 733 mmHg 77%
    10:00 +20°C° 0 mm 2 mps 733 mmHg 73%
    11:00 +21°C° 0 mm 2 mps 734 mmHg 69%
    12:00 +21°C° 0 mm 2 mps 733 mmHg 68%
    13:00 +23°C° 0 mm 2 mps 733 mmHg 66%
    14:00 +23°C° 0 mm 2 mps 733 mmHg 65%
    15:00 +23°C° 0.1 mm 2 mps 733 mmHg 68%
    16:00 +23°C° 0.1 mm 2 mps 733 mmHg 70%
    17:00 +23°C° 0.1 mm 2 mps 733 mmHg 72%
    18:00 +21°C° 0.1 mm 2 mps 733 mmHg 79%
    19:00 +21°C° 0.1 mm 1 mps 733 mmHg 85%
    20:00 +19°C° 0.1 mm 1 mps 733 mmHg 91%
    21:00 +19°C° 0 mm 1 mps 733 mmHg 92%
    22:00 +18°C° 0 mm 1 mps 733 mmHg 93%
    23:00 +15°C° 0 mm 0 mps 733 mmHg 94%

    25 July, Thursday

    Time Temperature Precipitation Wind Pressure Humidity
    00:00 +15°C° 0 mm 0 mps 733 mmHg 94%
    01:00 +14°C° 0 mm 0 mps 733 mmHg 94%
    02:00 +15°C° 0 mm 1 mps 733 mmHg 94%
    03:00 +15°C° 0 mm 1 mps 733 mmHg 94%
    04:00 +14°C° 0 mm 1 mps 733 mmHg 94%
    05:00 +14°C° 0 mm 1 mps 733 mmHg 95%
    06:00 +16°C° 0 mm 1 mps 734 mmHg 91%
    07:00 +19°C° 0 mm 1 mps 734 mmHg 87%
    08:00 +20°C° 0 mm 1 mps 734 mmHg 83%
    09:00 +22°C° 0 mm 1 mps 734 mmHg 77%
    10:00 +23°C° 0 mm 2 mps 734 mmHg 71%
    11:00 +25°C° 0 mm 2 mps 734 mmHg 64%
    12:00 +25°C° 0 mm 3 mps 734 mmHg 62%
    13:00 +26°C° 0 mm 3 mps 734 mmHg 60%
    14:00 +27°C° 0 mm 3 mps 734 mmHg 58%
    15:00 +26°C° 0.2 mm 3 mps 733 mmHg 61%
    16:00 +26°C° 0.2 mm 3 mps 733 mmHg 65%
    17:00 +26°C° 0.2 mm 3 mps 733 mmHg 68%
    18:00 +24°C° 0.1 mm 3 mps 733 mmHg 74%
    19:00 +23°C° 0.1 mm 2 mps 733 mmHg 80%
    20:00 +20°C° 0.1 mm 2 mps 733 mmHg 86%
    21:00 +20°C° 0 mm 1 mps 733 mmHg 88%
    22:00 +19°C° 0 mm 1 mps 733 mmHg 90%
    23:00 +18°C° 0 mm 1 mps 733 mmHg 92%

    26 July, Friday

    Time Temperature Precipitation Wind Pressure Humidity
    00:00 +16°C° 0 mm 1 mps 733 mmHg 92%
    01:00 +16°C° 0 mm 1 mps 733 mmHg 93%
    02:00 +15°C° 0 mm 0 mps 733 mmHg 93%
    03:00 +14°C° 0 mm 0 mps 733 mmHg 94%
    04:00 +14°C° 0 mm 0 mps 733 mmHg 95%
    05:00 +14°C° 0 mm 0 mps 733 mmHg 95%
    06:00 +16°C° 0 mm 1 mps 733 mmHg 93%
    07:00 +19°C° 0 mm 1 mps 733 mmHg 91%
    08:00 +20°C° 0 mm 1 mps 733 mmHg 89%
    09:00 +20°C° 0 mm 2 mps 733 mmHg 85%
    10:00 +21°C° 0 mm 2 mps 733 mmHg 82%
    11:00 +22°C° 0 mm 3 mps 733 mmHg 78%
    12:00 +24°C° 0 mm 3 mps 733 mmHg 74%
    13:00 +24°C° 0 mm 3 mps 733 mmHg 71%
    14:00 +25°C° 0 mm 4 mps 733 mmHg 67%
    15:00 +25°C° 0 mm 4 mps 732 mmHg 67%
    16:00 +25°C° 0 mm 4 mps 732 mmHg 67%
    17:00 +25°C° 0 mm 3 mps 732 mmHg 67%
    18:00 +24°C° 0 mm 3 mps 732 mmHg 74%
    19:00 +23°C° 0 mm 2 mps 732 mmHg 81%
    20:00 +20°C° 0 mm 2 mps 732 mmHg 87%
    21:00 +20°C° 0 mm 2 mps 732 mmHg 90%
    22:00 +20°C° 0 mm 1 mps 732 mmHg 92%
    23:00 +19°C° 0 mm 1 mps 732 mmHg 94%

    27 July, Saturday

    Time Temperature Precipitation Wind Pressure Humidity
    00:00 +19°C° 0 mm 1 mps 731 mmHg 94%
    01:00 +18°C° 0 mm 1 mps 731 mmHg 95%
    02:00 +18°C° 0 mm 1 mps 731 mmHg 95%
    03:00 +18°C° 0 mm 1 mps 731 mmHg 95%
    04:00 +16°C° 0 mm 1 mps 731 mmHg 95%
    05:00 +16°C° 0 mm 1 mps 730 mmHg 95%
    06:00 +19°C° 0 mm 1 mps 730 mmHg 90%
    07:00 +19°C° 0 mm 2 mps 730 mmHg 85%
    08:00 +21°C° 0 mm 2 mps 730 mmHg 80%
    09:00 +24°C° 0 mm 2 mps 730 mmHg 73%
    10:00 +25°C° 0 mm 3 mps 731 mmHg 66%
    11:00 +27°C° 0 mm 4 mps 731 mmHg 59%
    12:00 +27°C° 0 mm 4 mps 730 mmHg 58%
    13:00 +28°C° 0 mm 4 mps 730 mmHg 57%
    14:00 +28°C° 0 mm 4 mps 730 mmHg 56%
    15:00 +28°C° 0 mm 4 mps 729 mmHg 58%
    16:00 +28°C° 0 mm 4 mps 729 mmHg 59%
    17:00 +28°C° 0 mm 4 mps 729 mmHg 61%
    18:00 +26°C° 0 mm 4 mps 728 mmHg 68%
    19:00 +24°C° 0 mm 3 mps 728 mmHg 74%
    20:00 +21°C° 0 mm 3 mps 728 mmHg 81%
    21:00 +20°C° 0 mm 2 mps 728 mmHg 84%
    22:00 +19°C° 0 mm 2 mps 728 mmHg 86%
    23:00 +18°C° 0 mm 2 mps 728 mmHg 89%
    Show more